GW2129 Weather Reports


Display with metric or nautical units.
time (UTC)temp
F
wind
direction
speed
MPH
gust
MPH
rain 1hr
in
rain 24hr
in
rain mn
in
humidity
%
barometer
mb
20260906154401 90 123 0.0 5.0 0.00 0.00 0.00 63 1015.6
20260906153900 91 161 3.0 3.0 0.00 0.00 0.00 62 1015.6
20260906153359 89 10 2.0 3.0 0.00 0.00 0.00 66 1015.6
20260906152855 91 86 2.0 3.0 0.00 0.00 0.00 62 1015.5
20260906152355 91 233 0.0 5.0 0.00 0.00 0.00 61 1015.5
20260906151854 91 260 3.0 4.0 0.00 0.00 0.00 63 1015.5
20260906151350 89 280 2.0 3.0 0.00 0.00 0.00 68 1015.3
20260906150845 90 295 1.0 3.0 0.00 0.00 0.00 68 1015.4
20260906150341 88 253 3.0 4.0 0.00 0.00 0.00 69 1015.3
20260906145839 88 284 2.0 2.0 0.00 0.00 0.00 71 1015.4
20260906145333 88 143 2.0 3.0 0.00 0.00 0.00 71 1015.1
20260906144828 89 235 1.0 4.0 0.00 0.00 0.00 70 1015.1
20260906144323 88 269 0.0 3.0 0.00 0.00 0.00 72 1015.3
20260906143823 88 48 0.0 2.0 0.00 0.00 0.00 73 1015.1
20260906143319 87 256 1.0 2.0 0.00 0.00 0.00 75 1015.3
20260906142814 87 293 1.0 3.0 0.00 0.00 0.00 75 1015.3
20260906142309 86 116 1.0 3.0 0.00 0.00 0.00 77 1015.1
20260906141809 87 275 1.0 3.0 0.00 0.00 0.00 75 1015.2
20260906141303 86 265 1.0 2.0 0.00 0.00 0.00 77 1015.2
20260906140802 86 291 3.0 3.0 0.00 0.00 0.00 78 1015.3
20260906140257 85 306 0.0 3.0 0.00 0.00 0.00 78 1015.2
20260906135755 85 266 3.0 3.0 0.00 0.00 0.00 79 1015.1
20260906135250 85 253 1.0 3.0 0.00 0.00 0.00 79 1015.0
20260906134745 84 210 1.0 3.0 0.00 0.00 0.00 80 1015.2
20260906134235 85 171 2.0 2.0 0.00 0.00 0.00 80 1014.9
20260906133730 84 313 2.0 2.0 0.00 0.00 0.00 81 1014.9
20260906133226 82 218 0.0 1.0 0.00 0.00 0.00 84 1015.0
20260906132720 81 326 0.0 1.0 0.00 0.00 0.00 87 1014.9
20260906132216 80 218 0.0 1.0 0.00 0.00 0.00 89 1015.0
20260906131712 79 269 0.0 1.0 0.00 0.00 0.00 89 1014.4
20260906131207 79 324 0.0 2.0 0.00 0.00 0.00 89 1014.5
20260906130702 79 95 0.0 2.0 0.00 0.00 0.00 91 1014.5
20260906130157 78 121 1.0 2.0 0.00 0.00 0.00 92 1014.5
20260906125655 78 117 0.0 2.0 0.00 0.00 0.00 92 1014.3
20260906125154 78 124 0.0 1.0 0.00 0.00 0.00 93 1014.3
20260906124649 78 252 0.0 1.0 0.00 0.00 0.00 93 1014.2
20260906124144 78 269 0.0 2.0 0.00 0.00 0.00 93 1014.3
20260906123644 77 254 1.0 2.0 0.00 0.00 0.00 93 1014.1
20260906123139 77 113 0.0 0.0 0.00 0.00 0.00 93 1014.2
20260906122638 77 232 1.0 1.0 0.00 0.00 0.00 93 1014.0
20260906122134 77 293 0.0 1.0 0.00 0.00 0.00 93 1014.2
20260906121630 77 233 0.0 1.0 0.00 0.00 0.00 93 1013.8
20260906121126 77 202 0.0 1.0 0.00 0.00 0.00 93 1013.8
20260906120621 77 242 0.0 2.0 0.00 0.00 0.00 93 1013.8
20260906120119 77 76 0.0 1.0 0.00 0.00 0.00 92 1013.7
20260906115619 77 306 0.0 1.0 0.00 0.00 0.00 92 1013.5
20260906115114 77 229 0.0 1.0 0.00 0.00 0.00 92 1013.7
20260906114608 77 297 0.0 1.0 0.00 0.00 0.00 92 1013.7
20260906114103 77 89 0.0 0.0 0.00 0.00 0.00 91 1013.4
20260906113603 77 322 0.0 1.0 0.00 0.00 0.00 91 1013.4
20260906113057 77 242 0.0 1.0 0.00 0.00 0.00 91 1013.7
20260906112552 77 230 0.0 1.0 0.00 0.00 0.00 91 1013.1
20260906112048 77 212 1.0 2.0 0.00 0.00 0.00 91 1012.9
20260906111548 77 269 1.0 2.0 0.00 0.00 0.00 91 1013.1
20260906111043 77 29 0.0 1.0 0.00 0.00 0.00 91 1013.0
20260906110543 77 109 1.0 2.0 0.00 0.00 0.00 91 1013.1
20260906110042 77 224 0.0 1.0 0.00 0.00 0.00 91 1012.7
20260906105537 77 258 1.0 2.0 0.00 0.00 0.00 91 1012.8
20260906105033 77 284 0.0 0.0 0.00 0.00 0.00 90 1012.6
20260906104531 77 245 0.0 0.0 0.00 0.00 0.00 90 1012.7
20260906104026 77 255 0.0 0.0 0.00 0.00 0.00 90 1012.5
20260906103525 77 269 0.0 1.0 0.00 0.00 0.00 90 1012.7
20260906103020 77 255 0.0 0.0 0.00 0.00 0.00 90 1012.7
20260906102520 78 230 0.0 0.0 0.00 0.00 0.00 90 1012.5
20260906102015 78 104 0.0 0.0 0.00 0.00 0.00 90 1012.7
20260906101509 78 117 0.0 1.0 0.00 0.00 0.00 90 1012.6
20260906101004 78 309 0.0 0.0 0.00 0.00 0.00 90 1012.7
20260906100500 78 217 0.0 0.0 0.00 0.00 0.00 90 1012.7
20260906095954 78 217 0.0 0.0 0.00 0.00 0.00 90 1012.8
20260906095449 78 269 0.0 0.0 0.00 0.00 0.00 90 1012.6
20260906094944 77 269 0.0 0.0 0.00 0.00 0.00 90 1012.6
20260906094444 77 269 0.0 1.0 0.00 0.00 0.00 90 1012.5
20260906093940 77 322 0.0 1.0 0.00 0.00 0.00 89 1012.8
20260906093436 78 255 0.0 0.0 0.00 0.00 0.00 89 1012.7
20260906092935 78 255 0.0 0.0 0.00 0.00 0.00 89 1012.7
20260906092430 78 302 0.0 1.0 0.00 0.00 0.00 89 1012.9
20260906091925 78 294 0.0 1.0 0.00 0.00 0.00 88 1012.9
20260906091421 78 268 2.0 2.0 0.00 0.00 0.00 88 1012.7
20260906090918 78 234 1.0 2.0 0.00 0.00 0.00 88 1012.7
20260906090418 78 239 1.0 2.0 0.00 0.00 0.00 88 1012.9
20260906085912 78 269 0.0 2.0 0.00 0.00 0.00 88 1012.8
20260906085406 78 311 0.0 2.0 0.00 0.00 0.00 88 1013.2
20260906084905 78 245 1.0 3.0 0.00 0.00 0.00 88 1012.9
20260906084401 78 264 1.0 2.0 0.00 0.00 0.00 87 1013.0
20260906083859 78 288 0.0 2.0 0.00 0.00 0.00 87 1013.0
20260906083355 79 243 0.0 2.0 0.00 0.00 0.00 87 1013.0
20260906082854 79 233 2.0 2.0 0.00 0.00 0.00 87 1013.0
20260906082350 79 263 0.0 2.0 0.00 0.00 0.00 86 1013.2
20260906081846 79 255 0.0 1.0 0.00 0.00 0.00 86 1013.1
20260906081347 79 240 0.0 2.0 0.00 0.00 0.00 86 1012.8
20260906080842 79 265 3.0 3.0 0.00 0.00 0.00 86 1013.2
20260906080339 79 242 0.0 2.0 0.00 0.00 0.00 85 1013.1
20260906075838 79 235 0.0 2.0 0.00 0.00 0.00 85 1013.0
20260906075333 79 297 0.0 1.0 0.00 0.00 0.00 85 1013.2
20260906074829 80 253 1.0 3.0 0.00 0.00 0.00 84 1013.7
20260906074328 80 219 0.0 2.0 0.00 0.00 0.00 84 1013.6
20260906073827 80 44 0.0 2.0 0.00 0.00 0.00 84 1013.4
20260906073322 80 279 3.0 3.0 0.00 0.00 0.00 83 1013.5
20260906072819 80 261 1.0 3.0 0.00 0.00 0.00 83 1013.6
20260906072314 80 290 1.0 3.0 0.00 0.00 0.00 82 1013.8
20260906071809 80 221 0.0 2.0 0.00 0.00 0.00 82 1013.7
20260906071304 80 295 2.0 3.0 0.00 0.00 0.00 82 1013.8
20260906070801 80 290 1.0 2.0 0.00 0.00 0.00 81 1013.9
20260906070256 81 268 1.0 3.0 0.00 0.00 0.00 81 1013.9
20260906065756 81 320 1.0 3.0 0.00 0.00 0.00 80 1013.9
20260906065251 81 269 0.0 2.0 0.00 0.00 0.00 80 1013.8
20260906064747 81 211 1.0 3.0 0.00 0.00 0.00 79 1013.7
20260906064243 81 86 0.0 2.0 0.00 0.00 0.00 79 1014.0
20260906063737 81 301 0.0 3.0 0.00 0.00 0.00 78 1014.2
20260906063233 82 307 1.0 2.0 0.00 0.00 0.00 78 1014.2
20260906062728 82 215 3.0 6.0 0.00 0.00 0.00 77 1014.1
20260906062227 82 338 1.0 2.0 0.00 0.00 0.00 77 1014.3
20260906061723 82 288 2.0 5.0 0.00 0.00 0.00 76 1014.5
20260906061219 82 234 2.0 4.0 0.00 0.00 0.00 76 1014.5
20260906060715 82 293 0.0 3.0 0.00 0.00 0.00 76 1014.6
20260906060212 82 219 1.0 4.0 0.00 0.00 0.00 76 1014.4
20260906055707 82 317 0.0 2.0 0.00 0.00 0.00 75 1014.3
20260906055203 82 327 1.0 3.0 0.00 0.00 0.00 75 1014.4
20260906054657 83 308 0.0 4.0 0.00 0.00 0.00 75 1014.2
20260906054152 83 326 2.0 2.0 0.00 0.00 0.00 75 1014.1
20260906053649 83 194 0.0 4.0 0.00 0.00 0.00 74 1014.5
20260906053144 83 304 0.0 2.0 0.00 0.00 0.00 74 1014.3
20260906052639 83 38 0.0 3.0 0.00 0.00 0.00 74 1014.1
20260906052136 83 316 1.0 3.0 0.00 0.00 0.00 73 1014.0
20260906051632 84 244 2.0 4.0 0.00 0.00 0.00 73 1014.1
20260906051131 83 252 1.0 5.0 0.00 0.00 0.00 73 1014.2
20260906050627 84 269 0.0 2.0 0.00 0.00 0.00 74 1014.2
20260906050122 84 258 2.0 3.0 0.00 0.00 0.00 73 1014.2
20260906045621 84 255 2.0 3.0 0.00 0.00 0.00 73 1014.2
20260906045116 84 308 3.0 3.0 0.00 0.00 0.00 73 1014.3
20260906044612 84 153 2.0 3.0 0.00 0.00 0.00 73 1014.5
20260906044107 84 311 1.0 2.0 0.00 0.00 0.00 73 1014.7
20260906043603 84 275 0.0 2.0 0.00 0.00 0.00 73 1014.6
20260906043058 84 260 1.0 4.0 0.00 0.00 0.00 72 1014.6
20260906042557 84 281 2.0 2.0 0.00 0.00 0.00 72 1014.3
20260906042052 85 237 2.0 3.0 0.00 0.00 0.00 71 1014.5
20260906041548 85 196 1.0 4.0 0.00 0.00 0.00 71 1014.2
20260906041043 85 347 1.0 4.0 0.00 0.00 0.00 70 1014.2
20260906040538 85 237 1.0 6.0 0.00 0.00 0.00 70 1014.2
20260906040034 85 291 2.0 4.0 0.00 0.00 0.00 70 1014.2
20260906035529 85 290 3.0 5.0 0.00 0.00 0.00 69 1014.2
20260906035025 86 299 2.0 5.0 0.00 0.00 0.00 68 1014.3
20260906034524 86 132 1.0 7.0 0.00 0.00 0.00 68 1014.0
20260906034020 86 180 0.0 5.0 0.00 0.00 0.00 67 1013.9
20260906033514 86 163 3.0 4.0 0.00 0.00 0.00 66 1013.9
20260906033010 86 88 1.0 6.0 0.00 0.00 0.00 65 1013.9
20260906032506 86 169 3.0 3.0 0.00 0.00 0.00 65 1013.8
20260906032001 87 149 9.0 9.0 0.00 0.00 0.00 64 1013.5
20260906031456 87 139 2.0 8.0 0.00 0.00 0.00 64 1013.4
20260906030951 87 165 2.0 4.0 0.00 0.00 0.00 63 1013.6
20260906030446 87 154 2.0 7.0 0.00 0.00 0.00 63 1013.5
20260906025946 87 153 1.0 6.0 0.00 0.00 0.00 62 1013.2
20260906025440 88 245 2.0 8.0 0.00 0.00 0.00 61 1013.1
20260906024939 88 149 2.0 8.0 0.00 0.00 0.00 60 1012.9
20260906024438 88 238 2.0 3.0 0.00 0.00 0.00 59 1012.9
20260906023933 88 146 1.0 6.0 0.00 0.00 0.00 58 1012.6
20260906023430 88 193 1.0 4.0 0.00 0.00 0.00 58 1012.5
20260906022924 89 128 2.0 5.0 0.00 0.00 0.00 57 1012.4
20260906022419 89 148 5.0 6.0 0.00 0.00 0.00 56 1012.3
20260906021915 89 181 1.0 4.0 0.00 0.00 0.00 56 1012.2
20260906021414 89 247 0.0 3.0 0.00 0.00 0.00 56 1012.1
20260906020909 89 151 3.0 3.0 0.00 0.00 0.00 55 1012.1
20260906020403 90 132 1.0 4.0 0.00 0.00 0.00 55 1012.0
20260906015857 90 322 0.0 2.0 0.00 0.00 0.00 55 1011.9
20260906015356 90 62 0.0 4.0 0.00 0.00 0.00 55 1011.9
20260906014851 90 197 1.0 5.0 0.00 0.00 0.00 54 1011.9
20260906014351 90 115 4.0 5.0 0.00 0.00 0.00 54 1011.7
20260906013847 90 118 1.0 3.0 0.00 0.00 0.00 54 1011.7
20260906013342 91 188 0.0 4.0 0.00 0.00 0.00 53 1011.7
20260906012838 91 137 0.0 3.0 0.00 0.00 0.00 53 1011.7
20260906012333 91 101 2.0 5.0 0.00 0.00 0.00 53 1011.8
20260906011832 91 113 2.0 5.0 0.00 0.00 0.00 52 1011.7
20260906011327 91 130 4.0 5.0 0.00 0.00 0.00 52 1011.5
20260906010823 91 127 3.0 8.0 0.00 0.00 0.00 52 1011.6
20260906010319 92 128 1.0 8.0 0.00 0.00 0.00 52 1011.4
20260906005814 92 141 2.0 4.0 0.00 0.00 0.00 53 1011.2
20260906005313 92 122 4.0 6.0 0.00 0.00 0.00 52 1011.5
20260906004812 92 138 5.0 16.0 0.00 0.00 0.00 51 1011.4
20260906004312 93 123 2.0 10.0 0.00 0.00 0.00 50 1011.3
20260906003808 94 126 5.0 8.0 0.00 0.00 0.00 47 1011.2
20260906003303 94 147 3.0 8.0 0.00 0.00 0.00 46 1011.2
20260906002759 95 78 2.0 8.0 0.00 0.00 0.00 46 1011.1
20260906002258 95 123 5.0 10.0 0.00 0.00 0.00 44 1011.1
20260906001754 96 71 3.0 3.0 0.00 0.00 0.00 40 1011.0
20260906001248 97 100 3.0 3.0 0.00 0.00 0.00 39 1011.0
20260906000743 99 305 1.0 4.0 0.00 0.00 0.00 38 1011.0
20260906000238 99 240 2.0 3.0 0.00 0.00 0.00 38 1010.8
20260905235733 98 184 0.0 5.0 0.00 0.00 0.00 38 1010.9
20260905235233 98 166 3.0 3.0 0.00 0.00 0.00 38 1010.9
20260905234728 99 252 1.0 4.0 0.00 0.00 0.00 38 1011.2
20260905234223 97 296 0.0 1.0 0.00 0.00 0.00 39 1011.0
20260905233719 97 126 2.0 3.0 0.00 0.00 0.00 40 1011.1
20260905233218 97 84 2.0 3.0 0.00 0.00 0.00 40 1011.2
20260905232713 97 288 0.0 4.0 0.00 0.00 0.00 39 1010.9
20260905232209 97 98 2.0 4.0 0.00 0.00 0.00 40 1011.0
20260905231705 97 116 2.0 3.0 0.00 0.00 0.00 41 1011.1
20260905231200 97 101 3.0 5.0 0.00 0.00 0.00 40 1010.9
20260905230655 96 40 0.0 3.0 0.00 0.00 0.00 41 1011.0
20260905230153 97 85 3.0 6.0 0.00 0.00 0.00 41 1011.1
20260905225653 97 213 0.0 2.0 0.00 0.00 0.00 41 1011.0
20260905225148 96 20 2.0 5.0 0.00 0.00 0.00 42 1011.1
20260905224648 97 100 3.0 3.0 0.00 0.00 0.00 42 1011.0
20260905224147 95 95 2.0 5.0 0.00 0.00 0.00 42 1011.1
20260905223644 96 169 2.0 4.0 0.00 0.00 0.00 43 1011.0
20260905223141 96 283 2.0 3.0 0.00 0.00 0.00 42 1011.1
20260905222636 96 275 0.0 3.0 0.00 0.00 0.00 43 1011.3
20260905222131 95 50 0.0 2.0 0.00 0.00 0.00 42 1011.1
20260905221627 95 284 1.0 2.0 0.00 0.00 0.00 42 1011.1
20260905221124 95 25 4.0 6.0 0.00 0.00 0.00 42 1011.2
20260905220619 96 82 2.0 4.0 0.00 0.00 0.00 41 1011.3
20260905220115 96 295 3.0 4.0 0.00 0.00 0.00 40 1011.2
20260905215614 98 165 5.0 5.0 0.00 0.00 0.00 40 1011.0
20260905215110 98 223 2.0 3.0 0.00 0.00 0.00 40 1011.3
20260905214606 98 73 2.0 4.0 0.00 0.00 0.00 39 1011.0
20260905214106 98 234 2.0 3.0 0.00 0.00 0.00 40 1011.1
20260905213601 101 259 2.0 5.0 0.00 0.00 0.00 36 1011.2
20260905213056 100 212 3.0 4.0 0.00 0.00 0.00 37 1011.2
20260905212551 98 283 2.0 8.0 0.00 0.00 0.00 38 1011.3
20260905212050 100 285 4.0 5.0 0.00 0.00 0.00 36 1011.4
20260905211546 100 278 0.0 5.0 0.00 0.00 0.00 37 1011.5
20260905211041 98 304 2.0 3.0 0.00 0.00 0.00 37 1011.4
20260905210537 101 135 0.0 4.0 0.00 0.00 0.00 36 1011.5
20260905210032 100 300 1.0 6.0 0.00 0.00 0.00 36 1011.6
20260905205531 99 341 2.0 5.0 0.00 0.00 0.00 37 1011.6
20260905205031 100 2 1.0 5.0 0.00 0.00 0.00 37 1011.8
20260905204525 98 113 3.0 5.0 0.00 0.00 0.00 37 1011.6
20260905204020 100 286 1.0 6.0 0.00 0.00 0.00 37 1011.7
20260905203515 99 321 3.0 8.0 0.00 0.00 0.00 38 1012.0
20260905203010 100 254 3.0 3.0 0.00 0.00 0.00 37 1012.3
20260905202506 99 294 6.0 6.0 0.00 0.00 0.00 38 1012.2
20260905202001 98 232 1.0 6.0 0.00 0.00 0.00 39 1012.3
20260905201456 97 258 2.0 5.0 0.00 0.00 0.00 40 1012.4
20260905200955 96 89 3.0 5.0 0.00 0.00 0.00 40 1012.4
20260905200452 99 242 0.0 5.0 0.00 0.00 0.00 38 1012.7
20260905195950 99 333 3.0 5.0 0.00 0.00 0.00 39 1012.6
20260905195445 97 264 1.0 3.0 0.00 0.00 0.00 39 1013.0
20260905194941 98 62 0.0 5.0 0.00 0.00 0.00 38 1012.9
20260905194440 98 257 5.0 6.0 0.00 0.00 0.00 38 1013.1
20260905193935 99 309 3.0 6.0 0.00 0.00 0.00 38 1013.2
20260905193435 98 86 1.0 3.0 0.00 0.00 0.00 42 1013.2
20260905192930 98 158 2.0 4.0 0.00 0.00 0.00 41 1013.1
20260905192425 98 197 1.0 4.0 0.00 0.00 0.00 41 1013.3
20260905191921 97 263 3.0 7.0 0.00 0.00 0.00 40 1013.3
20260905191419 96 269 5.0 9.0 0.00 0.00 0.00 44 1013.5
20260905190914 97 259 2.0 5.0 0.00 0.00 0.00 46 1013.5
20260905190412 96 212 0.0 3.0 0.00 0.00 0.00 47 1013.5
20260905185911 97 266 3.0 7.0 0.00 0.00 0.00 47 1013.8
20260905185406 95 262 4.0 5.0 0.00 0.00 0.00 49 1013.7
20260905184904 97 273 2.0 6.0 0.00 0.00 0.00 47 1014.0
20260905184359 95 265 1.0 4.0 0.00 0.00 0.00 50 1013.9
20260905183857 95 238 2.0 6.0 0.00 0.00 0.00 51 1014.2
20260905183353 95 100 3.0 4.0 0.00 0.00 0.00 48 1014.1
20260905182848 96 338 3.0 4.0 0.00 0.00 0.00 52 1014.2
20260905182347 96 131 1.0 3.0 0.00 0.00 0.00 47 1014.4
20260905181843 96 254 2.0 7.0 0.00 0.00 0.00 47 1014.2
20260905181343 95 258 0.0 6.0 0.00 0.00 0.00 50 1014.5
20260905180842 94 271 2.0 6.0 0.00 0.00 0.00 50 1014.6
20260905180337 93 273 3.0 5.0 0.00 0.00 0.00 55 1014.6
20260905175832 95 215 3.0 5.0 0.00 0.00 0.00 51 1015.0
20260905175326 95 248 4.0 7.0 0.00 0.00 0.00 51 1014.7
20260905174821 92 209 0.0 3.0 0.00 0.00 0.00 56 1014.7
20260905174317 92 155 2.0 3.0 0.00 0.00 0.00 55 1014.6
20260905173812 93 188 0.0 6.0 0.00 0.00 0.00 56 1015.0
20260905173309 94 203 0.0 7.0 0.00 0.00 0.00 54 1015.1
20260905172809 95 230 2.0 4.0 0.00 0.00 0.00 52 1015.3
20260905172307 95 233 1.0 3.0 0.00 0.00 0.00 55 1015.3
20260905171803 95 204 4.0 5.0 0.00 0.00 0.00 53 1015.4
20260905171300 95 56 0.0 5.0 0.00 0.00 0.00 57 1015.5
20260905170755 93 271 3.0 3.0 0.00 0.00 0.00 57 1015.2
20260905170251 93 327 0.0 3.0 0.00 0.00 0.00 57 1015.5
20260905165750 94 327 3.0 4.0 0.00 0.00 0.00 55 1015.2
20260905165246 95 333 2.0 3.0 0.00 0.00 0.00 57 1015.5
20260905164746 93 236 0.0 4.0 0.00 0.00 0.00 59 1015.5
20260905164240 93 282 1.0 5.0 0.00 0.00 0.00 59 1015.4
20260905163736 92 173 3.0 4.0 0.00 0.00 0.00 60 1015.4
20260905163233 91 250 2.0 7.0 0.00 0.00 0.00 61 1015.5
20260905162728 91 123 1.0 9.0 0.00 0.00 0.00 62 1015.2
20260905162228 91 243 1.0 4.0 0.00 0.00 0.00 62 1015.4
20260905161723 90 301 2.0 4.0 0.00 0.00 0.00 64 1015.5
20260905161221 92 242 3.0 5.0 0.00 0.00 0.00 60 1015.5
20260905160720 91 188 4.0 7.0 0.00 0.00 0.00 62 1015.6
20260905160220 91 221 2.0 6.0 0.00 0.00 0.00 63 1015.6
20260905155714 91 249 4.0 6.0 0.00 0.00 0.00 61 1015.6
20260905155213 91 276 2.0 7.0 0.00 0.00 0.00 63 1015.5
20260905154707 91 323 0.0 4.0 0.00 0.00 0.00 64 1015.6